Location: Ithaca
(42.4410°N, 76.4970°W)
Time: 11:03:17
(UTC-05:00)

ISS - Visible Passes

Search period start: 06 March 2015 00:00
Search period end: 16 March 2015 01:00
Orbit: 396 x 408 km, 51.6° (Epoch: 06 March)

Date Brightness Start Highest point End Pass type
(mag) Time Alt. Az. Time Alt. Az. Time Alt. Az.
09 Mar -0.5 06:30:18 10° S 06:32:19 16° SE 06:34:25 10° E visible
11 Mar -1.9 06:19:32 10° SSW 06:22:31 35° SE 06:25:31 10° ENE visible
12 Mar -1.1 05:28:56 18° SSE 05:29:35 19° SE 05:31:59 10° E visible
13 Mar -3.4 06:10:55 25° SW 06:12:41 83° SE 06:15:56 10° ENE visible
14 Mar -2.1 05:20:07 38° ESE 05:20:07 38° ESE 05:22:43 10° ENE visible
15 Mar 0.2 04:29:13 10° E 04:29:13 10° E 04:29:13 10° E visible
15 Mar -2.9 06:01:49 33° W 06:02:51 47° NNW 06:06:00 10° NE visible
